Theta_e
298 298 298 298 298 298 297 297 296 296 295 294 293 293 292 292 292 292 291 290 290 290 289 289 289 288 289 287 287 286 286 285 285 285 284 284 282 282 283 281 281 280
298 298 297 297 297 297 297 297 297 296 295 294 294 292 292 292 291 291 290 289 289 289 288 288 288 287 287 286 285 284 284 285 284 286 284 283 282 282 282 281 281 281
297 297 297 296 297 296 296 297 297 296 295 294 293 293 292 291 291 290 289 288 288 288 287 287 286 286 286 285 285 284 285 284 283 283 283 282 282 282 282 281 281 280
296 297 297 296 296 296 296 296 295 295 293 293 292 291 291 291 290 288 287 288 286 286 286 286 286 285 285 285 285 284 283 283 283 282 282 283 282 282 282 282 282 281
296 295 296 295 295 295 294 295 294 293 292 291 289 289 289 288 288 287 287 286 286 285 285 285 285 285 284 284 285 283 283 283 282 282 281 281 282 281 280 281 280 279
295 295 294 295 294 294 294 293 293 292 290 289 289 288 287 287 287 286 286 285 285 285 285 284 284 284 284 284 284 282 282 282 282 281 281 280 280 281 282 280 278 278
294 294 294 294 293 293 293 292 291 291 288 288 286 286 286 286 286 286 285 285 285 285 284 284 283 283 283 283 283 281 281 280 281 280 279 279 279 279 279 279 279 277
292 292 292 291 291 291 291 289 288 288 286 286 286 285 286 286 285 285 285 285 284 284 283 283 282 282 282 282 282 280 280 281 281 279 278 278 278 278 279 280 279 278
291 290 289 289 289 287 287 286 286 286 286 286 285 285 285 286 285 285 285 284 283 283 282 282 282 281 281 280 280 279 279 280 280 279 278 278 278 278 278 278 278 279
291 289 290 289 289 288 287 286 286 286 286 286 285 285 285 285 284 284 284 283 282 282 281 281 281 280 280 279 279 279 279 279 279 279 278 278 278 278 278 278 277 277
289 289 289 288 288 288 287 287 286 286 286 286 285 284 284 284 283 283 282 282 282 281 280 280 280 280 279 278 278 278 279 279 279 279 278 278 277 277 279 277 277 276
288 288 288 288 288 287 287 287 286 286 285 285 284 284 283 282 282 282 282 281 280 279 279 279 279 279 278 278 278 278 278 278 279 278 278 278 277 277 277 277 277 276
288 288 288 287 287 287 287 286 285 284 283 283 283 282 282 282 281 281 280 279 279 279 279 279 278 278 278 277 277 277 277 277 277 277 277 277 277 277 277 277 276 276
287 286 286 286 285 285 285 284 283 282 282 282 282 282 282 281 280 280 278 278 278 278 278 278 278 278 277 277 277 277 277 276 276 276 276 276 277 277 277 277 277 276
286 284 284 284 284 285 284 284 284 283 282 282 281 280 281 279 279 279 278 278 277 278 278 278 278 278 278 277 277 276 276 276 276 276 276 276 276 276 276 276 276 276
286 285 285 285 285 285 284 283 283 282 281 280 280 280 279 278 278 278 278 277 277 277 277 279 278 279 281 283 282 277 276 277 277 276 275 275 276 276 276 276 277 277
285 285 284 284 283 283 282 282 282 281 280 280 279 279 278 278 278 278 277 277 277 277 277 278 279 280 283 286 286 285 279 277 276 276 276 276 276 276 276 277 277 277
284 283 283 283 283 282 282 281 281 280 280 279 278 278 278 277 277 277 277 276 277 276 276 277 278 283 285 284 284 284 283 278 277 277 277 276 276 277 277 277 277 277
283 284 283 283 283 282 282 281 281 280 279 278 278 278 277 277 276 276 276 276 276 275 275 277 277 285 285 284 284 284 284 282 277 277 276 276 277 277 276 276 276 277
284 283 283 282 282 282 281 281 280 280 279 278 278 277 277 276 275 275 275 275 275 275 275 275 276 284 285 285 284 284 284 283 277 277 277 276 276 276 277 276 276 276
283 283 282 282 281 281 280 280 279 278 278 277 277 276 276 276 275 274 274 275 275 275 275 275 277 284 285 284 284 284 284 283 277 278 277 277 277 277 277 276 276 277
282 281 281 281 280 280 279 279 278 277 277 276 276 275 275 275 274 275 275 275 275 275 275 275 278 285 284 284 283 283 283 279 277 276 276 276 276 276 276 276 275 275
282 281 281 280 280 279 278 278 277 277 276 276 275 275 275 274 275 275 275 275 275 275 275 275 277 283 284 283 282 283 281 276 275 276 275 275 275 274 274 274 274 276
281 281 281 280 279 278 278 277 277 276 276 277 276 275 275 274 274 275 275 275 275 275 275 274 275 280 283 283 282 282 280 275 275 273 274 274 274 274 274 274 275 278
282 282 281 280 279 278 278 277 277 277 276 276 276 275 274 275 276 275 275 274 274 274 279 274 275 278 283 282 282 281 279 275 273 272 271 272 273 273 274 275 275 277
282 281 281 280 279 279 278 277 276 276 275 276 275 276 276 275 276 275 274 274 274 275 276 274 274 276 279 282 281 281 280 275 272 272 271 271 271 273 274 275 276 276
Wind_Speed
8 7 8 8 8 7 7 8 7 8 8 7 8 8 8 7 7 8 7 6 6 6 5 6 5 5 6 6 6 6 6 6 5 5 5 6 4 4 4 4 3 4
8 8 7 7 7 6 7 7 7 8 8 8 7 7 7 7 7 8 7 6 6 6 5 6 6 6 6 7 6 6 6 6 6 4 6 6 5 5 5 5 5 4
7 7 8 9 9 8 7 6 6 7 7 7 6 7 7 6 7 6 6 6 6 6 6 6 6 6 7 6 6 6 7 7 7 6 7 7 5 6 5 4 4 4
9 9 9 8 7 7 6 6 5 5 5 6 6 6 6 6 7 7 6 6 6 6 6 6 7 7 7 7 7 6 7 7 7 6 5 5 5 5 6 5 5 4
8 7 6 6 5 5 5 6 6 6 5 5 5 5 7 6 7 7 7 6 6 7 7 7 7 7 7 7 8 7 7 8 7 7 6 5 5 4 4 5 5 5
6 6 5 5 5 5 6 6 6 6 5 5 6 6 6 7 7 7 8 8 7 8 8 7 7 7 7 7 8 6 7 7 6 6 5 5 5 5 4 4 4 4
6 5 6 5 5 5 6 5 5 5 5 5 5 6 7 7 8 8 9 9 9 9 9 8 8 8 7 7 7 5 6 5 5 5 5 4 4 5 5 4 4 4
4 3 3 3 5 5 5 5 5 5 5 5 6 6 8 9 9 9 9 9 9 8 8 8 8 8 7 7 7 5 5 4 6 6 5 4 4 5 5 5 4 5
5 4 4 4 5 5 5 5 5 5 6 7 7 8 8 9 9 9 9 8 7 8 8 8 8 7 6 6 6 5 6 5 6 6 5 5 5 5 5 4 4 5
6 6 6 7 7 7 7 6 7 7 7 9 9 8 9 8 8 8 7 8 8 8 8 7 7 6 6 5 6 6 6 6 5 5 5 5 5 5 5 5 5 4
7 7 8 8 8 7 8 8 8 9 8 9 8 8 6 6 5 6 7 8 9 8 7 6 6 6 6 5 5 6 6 6 6 5 5 5 4 4 5 4 4 4
8 7 9 9 9 8 8 8 8 7 6 5 5 5 5 5 6 6 7 6 5 5 5 6 6 6 6 6 5 5 5 5 5 5 5 5 4 4 5 4 4 5
7 7 7 6 7 6 5 5 4 4 4 4 4 5 6 6 5 5 4 5 5 5 6 6 6 6 6 6 5 5 4 4 4 4 4 4 4 4 4 4 4 4
5 5 5 5 4 4 4 3 3 4 5 5 5 6 6 5 6 6 5 5 5 6 6 6 6 6 6 6 5 5 5 4 4 4 4 4 4 4 4 4 5 5
5 5 5 5 5 5 5 5 6 5 5 5 5 4 4 5 5 6 6 5 5 6 6 6 7 6 5 6 6 5 5 4 4 4 4 4 4 4 4 4 4 4
5 5 5 5 5 5 5 5 4 4 4 5 5 5 5 5 6 6 7 7 7 6 6 6 6 4 6 9 7 5 5 4 4 4 4 4 4 4 4 4 4 5
4 4 4 4 4 4 4 4 5 5 5 5 5 5 6 6 7 7 7 6 7 7 6 6 5 4 9 9 9 8 5 4 3 3 2 3 3 4 4 5 5 5
4 4 4 5 4 5 5 5 5 5 6 6 6 6 6 6 7 7 7 6 6 6 6 5 4 7 10 9 9 8 7 4 3 2 3 3 4 4 5 4 5 6
5 5 5 5 5 6 5 6 6 6 6 6 7 6 5 6 7 6 6 5 6 6 6 5 5 9 11 10 10 9 9 6 3 3 3 4 4 5 5 5 5 6
5 5 5 5 5 5 5 5 6 7 6 6 5 5 6 6 5 5 4 5 6 6 6 6 5 9 12 11 10 9 8 7 4 4 3 4 4 5 5 5 6 6
4 4 5 4 4 4 5 5 5 4 5 4 5 5 6 6 5 5 4 5 5 6 6 6 6 10 11 10 9 9 8 6 3 3 3 4 5 5 6 6 6 7
4 4 4 3 3 3 4 4 4 4 4 3 3 3 3 4 4 5 5 5 5 5 5 5 5 11 10 10 9 8 7 3 2 3 4 5 6 5 5 6 5 6
4 4 3 3 3 3 4 4 4 3 3 3 4 4 5 5 5 4 5 6 5 5 5 4 4 8 10 9 8 7 4 2 2 4 4 5 5 4 4 4 4 5
4 3 3 2 2 4 4 4 3 3 4 4 6 5 5 5 4 4 4 5 5 5 5 4 4 6 9 8 7 7 5 3 3 2 4 5 5 4 4 5 7 10
2 1 1 2 3 4 3 4 4 4 3 4 4 4 4 4 5 5 4 3 4 4 6 4 3 5 7 7 7 6 3 2 1 2 3 4 5 6 6 6 7 8
1 1 1 1 2 1 2 3 3 3 4 4 3 5 5 4 5 5 5 3 3 4 3 4 4 3 4 7 7 6 5 2 1 1 4 5 4 5 6 7 7 8
Wind_Direction
204 203 206 205 207 198 198 195 196 195 195 190 190 192 190 184 171 178 183 177 174 171 171 166 159 153 152 152 156 158 162 168 162 174 173 177 184 159 170 192 201 195
206 204 207 206 208 206 208 196 195 192 194 190 190 183 183 172 173 170 176 172 169 174 164 157 156 155 157 160 165 158 161 161 171 173 163 175 195 173 189 191 198 214
203 205 205 204 204 204 205 200 192 193 186 191 180 176 172 164 159 165 164 163 164 161 156 156 157 161 161 164 169 161 165 167 169 166 163 188 188 178 194 195 195 204
207 207 208 210 202 202 197 193 197 189 177 178 183 163 150 152 150 153 155 156 157 160 160 160 164 166 166 167 170 173 172 175 173 167 174 186 200 183 194 190 192 208
210 212 212 211 210 202 191 192 194 189 184 180 149 140 142 147 152 156 159 163 162 165 167 169 168 169 170 166 173 180 173 173 172 168 178 186 201 187 201 175 194 208
222 214 212 207 203 200 200 197 192 187 179 167 166 146 153 155 160 165 167 171 173 170 171 170 169 170 168 169 176 178 168 163 170 163 176 191 198 192 193 186 193 209
219 210 210 201 202 202 200 196 191 186 179 171 144 165 158 166 170 173 176 176 174 174 172 172 168 172 174 170 179 169 171 160 165 168 182 203 181 194 190 190 202 213
251 248 229 208 207 205 201 196 190 182 170 156 171 177 170 176 178 180 178 177 173 172 170 172 173 174 172 165 175 163 173 152 164 171 188 203 193 203 196 194 197 209
214 215 199 208 205 214 210 199 191 177 170 171 177 181 183 182 183 179 178 173 170 171 173 175 173 168 167 162 170 163 163 158 164 172 182 200 210 209 207 206 204 209
207 199 192 197 203 203 204 199 188 184 178 180 184 181 183 188 178 176 169 171 173 176 175 169 163 162 164 166 168 165 162 170 174 179 188 199 203 210 213 207 204 213
209 199 200 203 206 203 205 197 191 187 185 185 179 183 180 171 174 169 172 176 179 175 166 163 162 159 163 171 171 165 166 171 181 188 198 205 208 210 213 207 213 210
214 207 207 206 207 210 208 203 196 189 185 186 173 173 170 174 171 181 180 177 166 162 158 158 158 159 165 169 168 163 163 167 177 185 194 203 216 217 213 211 208 226
226 224 219 217 215 218 216 209 199 187 171 181 175 166 174 180 181 176 174 162 164 158 163 162 160 160 162 166 163 163 163 166 181 192 204 207 217 216 219 215 217 219
244 243 236 234 231 225 222 206 185 175 178 182 171 177 181 179 175 171 172 160 168 164 166 160 159 162 164 162 161 162 164 179 185 199 209 220 221 227 221 224 224 226
244 236 226 220 211 204 198 192 186 183 177 177 178 176 176 174 167 162 164 166 169 166 163 159 159 164 161 158 153 164 165 182 192 200 208 219 237 240 243 235 237 234
240 227 217 208 201 201 200 189 182 176 171 175 180 177 173 169 167 169 171 174 169 165 156 151 157 156 159 159 158 161 176 181 194 201 208 222 232 248 256 250 242 242
248 241 218 215 209 201 193 179 180 176 175 176 177 175 175 174 172 174 179 173 166 159 154 151 150 149 152 147 149 152 152 160 172 212 215 224 230 232 239 249 255 250
241 233 213 216 198 199 191 185 175 174 179 179 178 179 184 174 174 181 175 167 158 152 151 152 146 155 159 161 168 171 169 173 177 199 233 240 248 248 248 246 250 254
233 223 217 208 203 194 188 180 179 182 184 180 187 185 171 177 184 173 174 163 155 153 153 157 155 167 167 175 182 185 186 175 185 208 222 247 255 257 258 257 256 259
235 224 220 214 201 193 185 186 186 193 191 185 177 174 177 179 175 169 159 158 157 157 159 157 158 174 172 179 182 186 192 192 186 209 230 245 250 257 261 264 260 262
252 237 234 224 202 192 190 194 196 195 186 186 176 179 176 178 172 162 164 156 158 156 152 155 165 177 172 179 182 190 199 204 185 217 238 250 253 252 255 253 260 259
257 252 244 231 204 196 195 204 201 193 189 180 160 164 163 148 158 157 161 162 162 153 150 156 168 173 170 175 185 191 206 192 192 231 246 255 257 256 255 261 260 263
258 244 242 230 206 194 206 205 195 198 184 153 157 168 167 167 173 166 158 155 158 155 152 148 161 173 168 175 182 194 193 187 224 245 252 254 262 263 270 272 272 268
254 226 230 232 200 204 207 205 190 174 177 166 166 169 172 173 156 142 151 150 153 158 155 144 163 180 169 172 178 194 184 195 244 265 282 278 283 288 282 279 273 270
269 247 238 229 218 218 190 188 184 181 169 152 159 147 157 140 131 128 130 131 138 142 141 125 127 163 163 174 184 201 197 179 225 271 279 283 289 286 279 268 266 271
12 339 307 255 234 211 174 179 161 129 134 141 136 129 126 120 118 121 122 116 104 99 89 110 117 153 183 194 200 211 213 178 205 255 275 275 273 269 277 270 272 274